Location: Moscow
(55.7500°N, 37.5830°E)
Time: 04:39:00
(UTC+03:00)

Vanguard 1 - Pass Details

Date: 02 December 2021
Orbit: 652 x 3830 km, 34.2° (Epoch: 21 January)

Event Time Altitude Azimuth Distance (km) Brightness Sun altitude
Rises 22:39:58 0° 191° (SSW) 7,306 - -51.6°
Reaches altitude 10° 22:46:46 10° 178° (S) 6,643 - -52.2°
Maximum altitude 23:00:45 21° 139° (SE) 6,017 - -53.3°
Drops below altitude 10° 23:14:32 10° 101° (E) 6,605 - -54.2°
Exits shadow 23:18:40 - 92° (E) 6,996 14.2 -54.5°
Sets 23:21:06 0° 88° (E) 7,264 14.4 -54.6°
